| time (UTC) | temp F | wind direction | speed knots | gust knots | rain 1hr in | rain 24hr in | rain mn in | humidity % | barometer mb |
| 20260904003109 | 59 | 139 | 0.0 | 2.6 | 0.00 | 0.25 | 0.24 | 79 | 997.2 |
| 20260904002512 | 59 | 109 | 0.9 | 2.6 | 0.00 | 0.25 | 0.24 | 80 | 997.2 |
| 20260904002013 | 59 | 255 | 0.0 | 4.3 | 0.00 | 0.25 | 0.24 | 80 | 997.2 |
| 20260904001535 | 59 | 220 | 0.0 | 6.1 | 0.00 | 0.25 | 0.24 | 81 | 997.3 |
| 20260904001045 | 59 | 219 | 3.5 | 6.1 | 0.00 | 0.25 | 0.24 | 81 | 997.3 |
| 20260904000551 | 59 | 229 | 2.6 | 6.1 | 0.00 | 0.25 | 0.24 | 81 | 997.3 |
| 20260904000015 | 58 | 158 | 0.9 | 3.5 | 0.00 | 0.25 | 0.24 | 83 | 997.4 |
| 20260903235529 | 58 | 5 | 0.0 | 3.5 | 0.00 | 0.25 | 0.24 | 84 | 997.4 |
| 20260903235037 | 58 | 338 | 0.0 | 3.5 | 0.00 | 0.25 | 0.24 | 84 | 997.4 |
| 20260903234501 | 59 | 263 | 0.9 | 3.5 | 0.00 | 0.25 | 0.24 | 84 | 997.4 |
| 20260903234008 | 59 | 169 | 0.0 | 5.2 | 0.01 | 0.25 | 0.24 | 84 | 997.3 |
| 20260903233515 | 59 | 169 | 1.7 | 5.2 | 0.01 | 0.25 | 0.24 | 84 | 997.4 |
| 20260903233118 | 58 | 22 | 0.9 | 1.7 | 0.01 | 0.25 | 0.24 | 86 | 997.3 |
| 20260903232501 | 58 | 21 | 0.0 | 1.7 | 0.01 | 0.25 | 0.24 | 86 | 997.4 |
| 20260903232005 | 58 | 20 | 0.0 | 1.7 | 0.01 | 0.25 | 0.24 | 86 | 997.3 |
| 20260903231549 | 58 | 21 | 0.0 | 1.7 | 0.01 | 0.25 | 0.24 | 86 | 997.3 |
| 20260903231056 | 57 | 21 | 0.0 | 1.7 | 0.02 | 0.25 | 0.24 | 86 | 997.3 |
| 20260903230605 | 57 | 20 | 0.0 | 1.7 | 0.02 | 0.25 | 0.24 | 87 | 997.4 |
| 20260903225547 | 56 | 355 | 0.0 | 2.6 | 0.02 | 0.33 | 0.24 | 86 | 997.5 |
| 20260903225055 | 57 | 355 | 0.9 | 3.5 | 0.02 | 0.33 | 0.24 | 86 | 997.5 |
| 20260903224541 | 57 | 261 | 0.0 | 4.3 | 0.02 | 0.33 | 0.24 | 85 | 997.7 |
| 20260903224039 | 56 | 201 | 0.0 | 8.7 | 0.01 | 0.32 | 0.23 | 85 | 997.8 |
| 20260903223545 | 57 | 195 | 2.6 | 8.7 | 0.01 | 0.32 | 0.23 | 85 | 997.8 |
| 20260903223030 | 57 | 202 | 1.7 | 6.1 | 0.01 | 0.32 | 0.23 | 85 | 997.7 |
| 20260903222532 | 57 | 166 | 0.9 | 7.0 | 0.01 | 0.32 | 0.23 | 85 | 997.7 |
| 20260903222039 | 57 | 186 | 1.7 | 7.0 | 0.01 | 0.32 | 0.23 | 85 | 997.8 |
| 20260903221505 | 57 | 216 | 0.9 | 7.0 | 0.01 | 0.32 | 0.23 | 85 | 997.9 |
| 20260903221020 | 57 | 188 | 0.0 | 6.1 | 0.00 | 0.31 | 0.22 | 85 | 997.8 |
| 20260903220534 | 57 | 188 | 0.9 | 6.1 | 0.00 | 0.31 | 0.22 | 85 | 997.7 |
| 20260903220059 | 57 | 190 | 0.0 | 3.5 | 0.00 | 0.31 | 0.22 | 86 | 997.7 |
| 20260903215505 | 56 | 240 | 1.7 | 3.5 | 0.00 | 0.31 | 0.22 | 86 | 997.7 |
| 20260903215018 | 56 | 110 | 0.0 | 4.3 | 0.00 | 0.31 | 0.22 | 86 | 997.6 |
| 20260903214551 | 56 | 132 | 0.0 | 5.2 | 0.00 | 0.31 | 0.22 | 86 | 997.6 |
| 20260903214057 | 56 | 164 | 0.9 | 7.0 | 0.00 | 0.31 | 0.22 | 86 | 997.8 |
| 20260903213503 | 56 | 196 | 1.7 | 7.0 | 0.01 | 0.31 | 0.22 | 86 | 997.6 |
| 20260903213051 | 56 | 360 | 0.9 | 4.3 | 0.01 | 0.31 | 0.22 | 86 | 997.6 |
| 20260903212546 | 56 | 200 | 1.7 | 4.3 | 0.02 | 0.31 | 0.22 | 87 | 997.7 |
| 20260903212055 | 56 | 175 | 1.7 | 4.3 | 0.03 | 0.31 | 0.22 | 87 | 997.7 |
| 20260903211530 | 56 | 157 | 1.7 | 5.2 | 0.05 | 0.31 | 0.22 | 87 | 997.7 |
| 20260903211034 | 56 | 166 | 1.7 | 5.2 | 0.05 | 0.31 | 0.22 | 87 | 997.8 |
| 20260903210541 | 56 | 178 | 1.7 | 9.6 | 0.05 | 0.31 | 0.22 | 86 | 997.7 |
| 20260903210020 | 56 | 171 | 1.7 | 9.6 | 0.06 | 0.32 | 0.22 | 86 | 997.7 |
| 20260903205530 | 56 | 123 | 0.9 | 5.2 | 0.06 | 0.32 | 0.22 | 86 | 997.9 |
| 20260903205032 | 56 | 184 | 0.9 | 5.2 | 0.06 | 0.32 | 0.22 | 86 | 997.8 |
| 20260903204559 | 56 | 197 | 0.0 | 2.6 | 0.06 | 0.32 | 0.22 | 85 | 997.8 |
| 20260903204017 | 56 | 198 | 0.0 | 3.5 | 0.06 | 0.32 | 0.22 | 84 | 997.8 |
| 20260903203522 | 56 | 197 | 0.0 | 4.3 | 0.05 | 0.31 | 0.21 | 83 | 997.7 |
| 20260903203051 | 57 | 173 | 1.7 | 7.8 | 0.05 | 0.31 | 0.21 | 82 | 997.8 |
| 20260903202556 | 57 | 175 | 2.6 | 7.8 | 0.04 | 0.30 | 0.20 | 82 | 997.9 |
| 20260903202101 | 58 | 195 | 1.7 | 7.0 | 0.03 | 0.28 | 0.19 | 82 | 997.8 |
| 20260903201535 | 59 | 223 | 1.7 | 7.8 | 0.01 | 0.27 | 0.17 | 82 | 997.6 |
| 20260903201044 | 59 | 198 | 1.7 | 6.1 | 0.01 | 0.27 | 0.17 | 82 | 997.6 |
| 20260903200551 | 59 | 186 | 1.7 | 6.1 | 0.01 | 0.27 | 0.17 | 81 | 997.6 |
| 20260903200025 | 60 | 198 | 1.7 | 13.0 | 0.00 | 0.33 | 0.16 | 80 | 997.6 |
| 20260903195530 | 60 | 207 | 1.7 | 13.0 | 0.00 | 0.33 | 0.16 | 80 | 997.6 |
| 20260903195037 | 61 | 171 | 1.7 | 9.6 | 0.00 | 0.33 | 0.16 | 79 | 997.6 |
| 20260903194553 | 61 | 226 | 3.5 | 9.6 | 0.00 | 0.33 | 0.16 | 78 | 997.6 |
| 20260903194059 | 61 | 221 | 0.9 | 6.1 | 0.00 | 0.33 | 0.16 | 80 | 997.5 |
| 20260903193606 | 61 | 169 | 2.6 | 6.1 | 0.00 | 0.33 | 0.16 | 79 | 997.5 |
| 20260903193044 | 61 | 174 | 1.7 | 7.8 | 0.00 | 0.33 | 0.16 | 81 | 997.5 |
| 20260903192545 | 61 | 178 | 2.6 | 7.8 | 0.00 | 0.33 | 0.16 | 80 | 997.6 |
| 20260903192050 | 60 | 237 | 0.9 | 6.1 | 0.00 | 0.33 | 0.16 | 81 | 997.5 |
| 20260903191527 | 60 | 160 | 1.7 | 10.4 | 0.00 | 0.33 | 0.16 | 80 | 997.6 |
| 20260903191031 | 60 | 182 | 2.6 | 9.6 | 0.00 | 0.33 | 0.16 | 80 | 997.6 |
| 20260903190537 | 60 | 254 | 1.7 | 10.4 | 0.00 | 0.33 | 0.16 | 81 | 997.6 |
| 20260903190000 | 59 | 235 | 3.5 | 9.6 | 0.00 | 0.43 | 0.16 | 81 | 997.5 |
| 20260903185507 | 59 | 214 | 0.9 | 7.0 | 0.00 | 0.43 | 0.16 | 82 | 997.5 |
| 20260903185013 | 59 | 177 | 1.7 | 7.0 | 0.00 | 0.43 | 0.16 | 82 | 997.6 |
| 20260903184541 | 59 | 256 | 2.6 | 7.0 | 0.00 | 0.43 | 0.16 | 83 | 997.7 |
| 20260903184043 | 59 | 199 | 2.6 | 7.8 | 0.00 | 0.43 | 0.16 | 83 | 997.7 |
| 20260903183550 | 59 | 175 | 2.6 | 14.8 | 0.00 | 0.43 | 0.16 | 82 | 997.8 |
| 20260903183029 | 59 | 184 | 7.0 | 14.8 | 0.00 | 0.43 | 0.16 | 83 | 997.7 |
| 20260903182539 | 59 | 122 | 2.6 | 8.7 | 0.00 | 0.43 | 0.16 | 84 | 997.8 |
| 20260903182045 | 59 | 132 | 2.6 | 8.7 | 0.00 | 0.43 | 0.16 | 83 | 997.7 |
| 20260903181517 | 59 | 175 | 2.6 | 8.7 | 0.00 | 0.43 | 0.16 | 84 | 997.8 |
| 20260903181024 | 58 | 174 | 1.7 | 8.7 | 0.00 | 0.43 | 0.16 | 85 | 997.7 |
| 20260903180528 | 58 | 252 | 2.6 | 8.7 | 0.00 | 0.43 | 0.16 | 85 | 997.6 |
| 20260903180100 | 58 | 174 | 3.5 | 13.9 | 0.00 | 0.53 | 0.16 | 85 | 997.5 |
| 20260903175502 | 58 | 194 | 2.6 | 14.8 | 0.00 | 0.53 | 0.16 | 86 | 997.4 |
| 20260903175010 | 58 | 149 | 1.7 | 10.4 | 0.00 | 0.53 | 0.16 | 87 | 997.6 |
| 20260903174549 | 58 | 126 | 3.5 | 10.4 | 0.00 | 0.53 | 0.16 | 87 | 997.7 |
| 20260903174057 | 58 | 186 | 0.9 | 4.3 | 0.00 | 0.53 | 0.16 | 88 | 997.5 |
| 20260903173506 | 58 | 238 | 0.9 | 10.4 | 0.00 | 0.53 | 0.16 | 88 | 997.6 |
| 20260903173043 | 58 | 113 | 2.6 | 10.4 | 0.00 | 0.53 | 0.16 | 89 | 997.5 |
| 20260903172548 | 57 | 194 | 0.9 | 7.8 | 0.00 | 0.53 | 0.16 | 89 | 997.5 |
| 20260903172055 | 56 | 220 | 1.7 | 7.0 | 0.00 | 0.53 | 0.16 | 89 | 997.5 |
| 20260903171528 | 56 | 194 | 0.0 | 5.2 | 0.00 | 0.53 | 0.16 | 89 | 997.5 |
| 20260903171035 | 56 | 163 | 0.9 | 7.0 | 0.00 | 0.53 | 0.16 | 89 | 997.5 |
| 20260903170546 | 56 | 191 | 1.7 | 7.0 | 0.00 | 0.53 | 0.16 | 89 | 997.5 |
| 20260903170011 | 56 | 226 | 0.0 | 5.2 | 0.01 | 0.55 | 0.16 | 89 | 997.5 |
| 20260903165512 | 56 | 147 | 0.9 | 5.2 | 0.01 | 0.55 | 0.16 | 90 | 997.6 |
| 20260903165026 | 56 | 181 | 0.9 | 3.5 | 0.01 | 0.55 | 0.16 | 90 | 997.8 |
| 20260903164554 | 56 | 203 | 0.9 | 8.7 | 0.01 | 0.55 | 0.16 | 90 | 997.9 |
| 20260903164103 | 55 | 154 | 3.5 | 8.7 | 0.01 | 0.55 | 0.16 | 90 | 997.9 |
| 20260903163509 | 56 | 234 | 1.7 | 4.3 | 0.01 | 0.55 | 0.16 | 90 | 998.0 |
| 20260903163047 | 55 | 46 | 0.0 | 4.3 | 0.01 | 0.55 | 0.16 | 90 | 998.0 |
| 20260903162554 | 55 | 171 | 0.0 | 4.3 | 0.01 | 0.55 | 0.16 | 91 | 998.0 |
| 20260903162100 | 54 | 207 | 0.9 | 7.0 | 0.02 | 0.55 | 0.16 | 90 | 998.0 |
| 20260903161528 | 54 | 212 | 0.9 | 7.0 | 0.02 | 0.55 | 0.16 | 90 | 998.2 |
| 20260903161032 | 54 | 211 | 0.0 | 2.6 | 0.03 | 0.55 | 0.16 | 90 | 998.0 |
| 20260903160540 | 54 | 211 | 0.9 | 2.6 | 0.04 | 0.55 | 0.16 | 90 | 998.2 |
| 20260903160003 | 54 | 217 | 0.0 | 5.2 | 0.03 | 0.54 | 0.15 | 90 | 998.1 |
| 20260903155516 | 54 | 200 | 0.0 | 2.6 | 0.03 | 0.54 | 0.15 | 90 | 998.0 |
| 20260903155023 | 54 | 200 | 0.0 | 3.5 | 0.03 | 0.54 | 0.15 | 90 | 998.0 |
| 20260903154556 | 54 | 200 | 0.0 | 3.5 | 0.04 | 0.54 | 0.15 | 90 | 998.0 |
| 20260903154048 | 54 | 158 | 0.0 | 7.0 | 0.04 | 0.54 | 0.15 | 90 | 998.0 |
| 20260903153557 | 54 | 157 | 0.9 | 7.8 | 0.04 | 0.54 | 0.15 | 90 | 998.1 |
| 20260903153037 | 54 | 199 | 0.9 | 7.8 | 0.04 | 0.54 | 0.15 | 90 | 998.0 |
| 20260903152541 | 53 | 168 | 0.9 | 7.8 | 0.04 | 0.54 | 0.15 | 90 | 997.9 |
| 20260903152049 | 53 | 180 | 1.7 | 10.4 | 0.04 | 0.53 | 0.14 | 90 | 997.8 |
| 20260903151521 | 54 | 147 | 2.6 | 10.4 | 0.04 | 0.53 | 0.14 | 90 | 997.7 |
| 20260903151029 | 53 | 167 | 2.6 | 10.4 | 0.03 | 0.52 | 0.13 | 90 | 997.6 |
| 20260903150526 | 53 | 252 | 3.5 | 7.8 | 0.02 | 0.51 | 0.12 | 90 | 997.7 |
| 20260903150105 | 53 | 202 | 2.6 | 7.8 | 0.02 | 0.51 | 0.12 | 90 | 997.7 |
| 20260903145506 | 53 | 203 | 3.5 | 8.7 | 0.03 | 0.51 | 0.12 | 90 | 997.4 |
| 20260903145102 | 53 | 211 | 3.5 | 11.3 | 0.03 | 0.51 | 0.12 | 90 | 997.5 |
| 20260903144540 | 54 | 243 | 3.5 | 11.3 | 0.02 | 0.50 | 0.11 | 90 | 997.5 |
| 20260903144046 | 54 | 215 | 2.6 | 8.7 | 0.03 | 0.50 | 0.11 | 90 | 997.4 |
| 20260903143554 | 54 | 154 | 2.6 | 10.4 | 0.03 | 0.50 | 0.11 | 90 | 997.3 |
| 20260903143022 | 54 | 140 | 0.9 | 10.4 | 0.03 | 0.50 | 0.11 | 90 | 997.2 |
| 20260903142530 | 54 | 199 | 1.7 | 7.8 | 0.03 | 0.50 | 0.11 | 90 | 997.3 |
| 20260903142040 | 54 | 271 | 1.7 | 7.8 | 0.02 | 0.49 | 0.10 | 90 | 997.3 |
| 20260903141608 | 54 | 184 | 1.7 | 8.7 | 0.02 | 0.49 | 0.10 | 90 | 997.2 |
| 20260903141004 | 54 | 165 | 1.7 | 8.7 | 0.02 | 0.49 | 0.10 | 90 | 997.1 |
| 20260903140523 | 54 | 221 | 3.5 | 8.7 | 0.02 | 0.49 | 0.10 | 90 | 997.1 |
| 20260903140048 | 54 | 196 | 2.6 | 8.7 | 0.02 | 0.49 | 0.10 | 90 | 997.2 |
| 20260903135556 | 54 | 182 | 2.6 | 8.7 | 0.02 | 0.48 | 0.09 | 90 | 997.1 |
| 20260903135006 | 54 | 193 | 3.5 | 10.4 | 0.02 | 0.48 | 0.09 | 90 | 996.9 |
| 20260903134546 | 54 | 188 | 2.6 | 8.7 | 0.03 | 0.48 | 0.09 | 90 | 996.9 |
| 20260903134044 | 54 | 218 | 1.7 | 8.7 | 0.02 | 0.47 | 0.08 | 90 | 996.9 |
| 20260903133552 | 54 | 208 | 2.6 | 6.1 | 0.04 | 0.47 | 0.08 | 90 | 997.0 |
| 20260903133011 | 54 | 190 | 2.6 | 7.0 | 0.05 | 0.47 | 0.08 | 90 | 996.9 |
| 20260903132602 | 54 | 223 | 1.7 | 7.0 | 0.06 | 0.47 | 0.08 | 90 | 997.0 |
| 20260903132008 | 54 | 205 | 1.7 | 11.3 | 0.06 | 0.47 | 0.08 | 89 | 996.8 |
| 20260903131601 | 54 | 189 | 3.5 | 11.3 | 0.06 | 0.47 | 0.08 | 89 | 996.7 |
| 20260903131049 | 54 | 172 | 2.6 | 9.6 | 0.07 | 0.47 | 0.08 | 89 | 996.7 |
| 20260903130551 | 54 | 175 | 1.7 | 11.3 | 0.07 | 0.47 | 0.08 | 89 | 996.8 |
| 20260903130034 | 54 | 248 | 2.6 | 11.3 | 0.07 | 0.47 | 0.08 | 89 | 996.8 |
| 20260903125544 | 54 | 196 | 3.5 | 7.8 | 0.06 | 0.46 | 0.07 | 89 | 996.8 |
| 20260903125052 | 54 | 229 | 1.7 | 4.3 | 0.06 | 0.46 | 0.07 | 89 | 996.7 |
| 20260903124524 | 54 | 166 | 0.9 | 4.3 | 0.05 | 0.45 | 0.06 | 89 | 996.9 |
| 20260903124029 | 54 | 119 | 0.9 | 7.0 | 0.04 | 0.44 | 0.06 | 89 | 997.0 |
| 20260903123533 | 54 | 140 | 1.7 | 9.6 | 0.03 | 0.43 | 0.04 | 89 | 997.0 |
| 20260903123105 | 54 | 155 | 1.7 | 9.6 | 0.01 | 0.41 | 0.03 | 89 | 997.0 |
| 20260903122513 | 54 | 180 | 2.6 | 7.8 | 0.01 | 0.41 | 0.02 | 89 | 997.0 |
| 20260903122022 | 54 | 225 | 0.9 | 7.8 | 0.01 | 0.41 | 0.02 | 89 | 997.1 |
| 20260903121559 | 54 | 209 | 1.7 | 8.7 | 0.01 | 0.41 | 0.02 | 89 | 997.0 |
| 20260903121052 | 54 | 163 | 1.7 | 8.7 | 0.00 | 0.40 | 0.02 | 89 | 996.9 |
| 20260903120600 | 54 | 273 | 0.9 | 8.7 | 0.00 | 0.40 | 0.01 | 89 | 997.0 |
| 20260903120030 | 54 | 184 | 1.7 | 7.0 | 0.00 | 0.40 | 0.01 | 89 | 997.0 |
| 20260903115539 | 54 | 143 | 1.7 | 7.0 | 0.00 | 0.40 | 0.01 | 89 | 997.0 |
| 20260903115045 | 54 | 150 | 1.7 | 9.6 | 0.00 | 0.40 | 0.01 | 89 | 996.9 |
| 20260903114522 | 54 | 213 | 1.7 | 6.1 | 0.00 | 0.40 | 0.01 | 89 | 997.0 |
| 20260903114020 | 54 | 169 | 1.7 | 7.0 | 0.00 | 0.40 | 0.01 | 89 | 997.0 |
| 20260903113527 | 54 | 186 | 0.9 | 8.7 | 0.00 | 0.40 | 0.01 | 89 | 997.0 |
| 20260903113058 | 54 | 123 | 2.6 | 11.3 | 0.00 | 0.40 | 0.01 | 89 | 997.1 |
| 20260903112502 | 54 | 218 | 2.6 | 10.4 | 0.00 | 0.40 | 0.01 | 89 | 997.1 |
| 20260903112010 | 54 | 159 | 1.7 | 8.7 | 0.00 | 0.40 | 0.01 | 89 | 997.1 |
| 20260903111550 | 54 | 167 | 3.5 | 8.7 | 0.00 | 0.40 | 0.01 | 89 | 997.0 |
| 20260903111057 | 54 | 143 | 1.7 | 11.3 | 0.00 | 0.40 | 0.01 | 89 | 996.9 |
| 20260903110558 | 54 | 161 | 3.5 | 11.3 | 0.00 | 0.40 | 0.01 | 89 | 996.9 |
| 20260903110030 | 54 | 132 | 0.9 | 6.1 | 0.00 | 0.40 | 0.01 | 89 | 996.9 |
| 20260903105536 | 54 | 194 | 3.5 | 6.1 | 0.00 | 0.40 | 0.01 | 89 | 997.0 |
| 20260903105039 | 54 | 180 | 1.7 | 6.1 | 0.00 | 0.40 | 0.01 | 89 | 997.1 |
| 20260903104508 | 54 | 144 | 0.0 | 8.7 | 0.00 | 0.40 | 0.01 | 89 | 997.0 |
| 20260903104028 | 54 | 173 | 2.6 | 8.7 | 0.00 | 0.40 | 0.01 | 89 | 997.1 |
| 20260903103521 | 54 | 170 | 1.7 | 12.2 | 0.01 | 0.40 | 0.01 | 89 | 997.1 |
| 20260903103058 | 54 | 131 | 3.5 | 12.2 | 0.01 | 0.40 | 0.01 | 89 | 997.2 |
| 20260903102515 | 54 | 136 | 2.6 | 10.4 | 0.01 | 0.40 | 0.01 | 89 | 997.0 |
| 20260903102010 | 54 | 213 | 2.6 | 11.3 | 0.01 | 0.40 | 0.01 | 89 | 997.1 |
| 20260903101551 | 54 | 174 | 3.5 | 11.3 | 0.01 | 0.40 | 0.01 | 89 | 997.1 |
| 20260903101057 | 54 | 207 | 0.0 | 12.2 | 0.01 | 0.40 | 0.01 | 89 | 997.1 |
| 20260903100607 | 54 | 196 | 1.7 | 7.8 | 0.01 | 0.40 | 0.01 | 89 | 997.0 |
| 20260903100039 | 54 | 219 | 1.7 | 7.8 | 0.01 | 0.40 | 0.01 | 89 | 996.9 |
| 20260903095533 | 54 | 190 | 0.9 | 4.3 | 0.01 | 0.40 | 0.01 | 89 | 997.0 |
| 20260903095044 | 54 | 252 | 0.9 | 6.1 | 0.01 | 0.40 | 0.01 | 89 | 996.9 |
| 20260903094515 | 55 | 159 | 1.7 | 6.1 | 0.01 | 0.40 | 0.01 | 89 | 996.9 |
| 20260903094026 | 55 | 98 | 0.0 | 7.8 | 0.01 | 0.40 | 0.01 | 89 | 997.0 |
| 20260903093534 | 55 | 228 | 1.7 | 7.8 | 0.00 | 0.39 | 0.00 | 89 | 997.0 |
| 20260903093102 | 54 | 108 | 1.7 | 7.0 | 0.00 | 0.39 | 0.00 | 89 | 997.1 |
| 20260903092557 | 54 | 211 | 1.7 | 7.0 | 0.00 | 0.39 | 0.00 | 89 | 997.0 |
| 20260903092003 | 55 | 175 | 0.9 | 6.1 | 0.00 | 0.39 | 0.00 | 89 | 997.0 |
| 20260903091552 | 55 | 211 | 0.9 | 7.8 | 0.00 | 0.39 | 0.00 | 89 | 997.1 |
| 20260903091043 | 55 | 227 | 1.7 | 9.6 | 0.00 | 0.39 | 0.00 | 89 | 997.0 |
| 20260903090550 | 55 | 205 | 2.6 | 16.5 | 0.00 | 0.39 | 0.00 | 89 | 997.1 |
| 20260903090027 | 55 | 168 | 1.7 | 15.6 | 0.00 | 0.39 | 0.00 | 89 | 997.2 |
| 20260903085527 | 55 | 165 | 2.6 | 9.6 | 0.00 | 0.39 | 0.00 | 89 | 997.2 |
| 20260903085019 | 55 | 173 | 1.7 | 9.6 | 0.00 | 0.39 | 0.00 | 89 | 997.2 |
| 20260903084602 | 55 | 175 | 0.9 | 3.5 | 0.00 | 0.39 | 0.00 | 89 | 997.2 |
| 20260903084018 | 55 | 213 | 0.9 | 6.1 | 0.00 | 0.39 | 0.00 | 89 | 997.2 |
| 20260903083509 | 55 | 132 | 0.9 | 7.8 | 0.00 | 0.39 | 0.00 | 89 | 997.3 |
| 20260903083050 | 55 | 238 | 1.7 | 7.8 | 0.00 | 0.39 | 0.00 | 89 | 997.3 |
| 20260903082551 | 55 | 160 | 1.7 | 7.0 | 0.00 | 0.39 | 0.00 | 89 | 997.3 |
| 20260903082054 | 55 | 206 | 1.7 | 7.8 | 0.00 | 0.39 | 0.00 | 89 | 997.3 |
| 20260903081534 | 55 | 167 | 1.7 | 8.7 | 0.00 | 0.39 | 0.00 | 89 | 997.3 |
| 20260903081036 | 55 | 137 | 1.7 | 5.2 | 0.00 | 0.39 | 0.00 | 89 | 997.2 |
| 20260903080542 | 55 | 148 | 1.7 | 5.2 | 0.00 | 0.39 | 0.00 | 89 | 997.3 |
| 20260903080003 | 55 | 192 | 0.9 | 3.5 | 0.00 | 0.39 | 0.00 | 89 | 997.4 |
| 20260903075511 | 55 | 179 | 0.0 | 6.1 | 0.00 | 0.39 | 0.00 | 89 | 997.5 |
| 20260903075029 | 55 | 246 | 1.7 | 6.1 | 0.00 | 0.39 | 0.00 | 89 | 997.5 |
| 20260903074553 | 55 | 175 | 1.7 | 7.0 | 0.00 | 0.39 | 0.00 | 89 | 997.6 |
| 20260903074003 | 55 | 188 | 0.9 | 7.0 | 0.00 | 0.39 | 0.00 | 89 | 997.6 |
| 20260903073512 | 55 | 160 | 0.9 | 6.1 | 0.00 | 0.39 | 0.00 | 89 | 997.4 |
| 20260903072537 | 55 | 184 | 0.0 | 5.2 | 0.00 | 0.39 | 0.00 | 89 | 997.4 |
| 20260903072045 | 55 | 167 | 0.9 | 6.1 | 0.00 | 0.39 | 0.00 | 89 | 997.4 |
| 20260903071520 | 55 | 200 | 2.6 | 7.0 | 0.00 | 0.39 | 0.00 | 89 | 997.4 |
| 20260903071025 | 55 | 267 | 0.9 | 3.5 | 0.00 | 0.39 | 0.00 | 89 | 997.3 |
| 20260903070527 | 55 | 153 | 0.9 | 6.1 | 0.00 | 0.39 | 0.00 | 89 | 997.3 |
| 20260903070100 | 55 | 224 | 1.7 | 6.1 | 0.00 | 0.39 | 0.39 | 89 | 997.2 |
| 20260903065600 | 55 | 200 | 0.0 | 5.2 | 0.00 | 0.39 | 0.39 | 89 | 997.2 |
| 20260903065004 | 55 | 55 | 0.9 | 3.5 | 0.00 | 0.39 | 0.39 | 89 | 997.2 |
| 20260903064540 | 55 | 215 | 0.9 | 4.3 | 0.00 | 0.39 | 0.39 | 89 | 997.3 |
| 20260903064047 | 55 | 224 | 0.9 | 4.3 | 0.00 | 0.39 | 0.39 | 89 | 997.4 |
| 20260903063550 | 55 | 203 | 0.9 | 7.8 | 0.00 | 0.39 | 0.39 | 89 | 997.3 |
| 20260903063028 | 55 | 146 | 1.7 | 6.1 | 0.00 | 0.39 | 0.39 | 89 | 997.3 |
| 20260903062534 | 55 | 228 | 1.7 | 7.8 | 0.00 | 0.39 | 0.39 | 89 | 997.3 |
| 20260903062040 | 55 | 209 | 0.0 | 7.8 | 0.01 | 0.39 | 0.39 | 89 | 997.3 |
| 20260903061512 | 55 | 184 | 0.0 | 5.2 | 0.01 | 0.39 | 0.39 | 89 | 997.4 |
| 20260903061024 | 55 | 177 | 1.7 | 6.1 | 0.01 | 0.39 | 0.39 | 89 | 997.5 |
| 20260903060528 | 55 | 160 | 0.9 | 7.0 | 0.01 | 0.39 | 0.39 | 89 | 997.5 |
| 20260903060120 | 55 | 252 | 0.0 | 7.0 | 0.01 | 0.39 | 0.39 | 89 | 997.4 |
| 20260903055501 | 55 | 214 | 0.9 | 4.3 | 0.01 | 0.39 | 0.39 | 89 | 997.5 |
| 20260903055012 | 55 | 164 | 1.7 | 7.8 | 0.01 | 0.39 | 0.39 | 89 | 997.5 |
| 20260903054546 | 56 | 203 | 0.9 | 7.8 | 0.01 | 0.39 | 0.39 | 89 | 997.5 |
| 20260903054054 | 56 | 279 | 0.0 | 3.5 | 0.01 | 0.39 | 0.39 | 89 | 997.4 |
| 20260903053559 | 56 | 207 | 0.9 | 3.5 | 0.01 | 0.39 | 0.39 | 89 | 997.4 |
| 20260903053038 | 56 | 235 | 0.0 | 7.0 | 0.01 | 0.39 | 0.39 | 89 | 997.4 |
| 20260903052541 | 56 | 181 | 0.9 | 7.0 | 0.01 | 0.39 | 0.39 | 89 | 997.4 |
| 20260903052048 | 56 | 174 | 1.7 | 7.0 | 0.00 | 0.38 | 0.38 | 89 | 997.4 |
| 20260903051517 | 56 | 205 | 0.9 | 5.2 | 0.00 | 0.38 | 0.38 | 89 | 997.4 |
| 20260903051024 | 56 | 190 | 0.0 | 3.5 | 0.00 | 0.38 | 0.38 | 89 | 997.4 |
| 20260903050529 | 56 | 168 | 1.7 | 3.5 | 0.00 | 0.38 | 0.38 | 89 | 997.4 |
| 20260903050001 | 56 | 175 | 0.0 | 3.5 | 0.00 | 0.38 | 0.38 | 89 | 997.3 |
| 20260903045513 | 56 | 207 | 0.0 | 3.5 | 0.00 | 0.38 | 0.38 | 89 | 997.3 |
| 20260903045020 | 56 | 176 | 0.0 | 1.7 | 0.00 | 0.38 | 0.38 | 89 | 997.3 |
| 20260903044552 | 56 | 175 | 0.0 | 3.5 | 0.00 | 0.38 | 0.38 | 89 | 997.3 |
| 20260903044103 | 56 | 174 | 0.0 | 5.2 | 0.00 | 0.38 | 0.38 | 89 | 997.2 |
| 20260903043549 | 56 | 173 | 0.0 | 5.2 | 0.00 | 0.38 | 0.38 | 89 | 997.3 |
| 20260903043016 | 56 | 236 | 0.0 | 4.3 | 0.00 | 0.38 | 0.38 | 89 | 997.2 |
| 20260903042525 | 56 | 151 | 0.0 | 4.3 | 0.00 | 0.38 | 0.38 | 89 | 997.1 |
| 20260903042032 | 56 | 167 | 0.0 | 5.2 | 0.00 | 0.38 | 0.38 | 89 | 997.0 |
| 20260903041559 | 56 | 170 | 1.7 | 5.2 | 0.00 | 0.38 | 0.38 | 88 | 997.0 |
| 20260903041007 | 56 | 258 | 0.9 | 2.6 | 0.00 | 0.38 | 0.38 | 88 | 997.0 |
| 20260903040513 | 56 | 259 | 0.0 | 6.1 | 0.00 | 0.38 | 0.38 | 88 | 996.9 |
| 20260903040036 | 56 | 251 | 0.9 | 6.1 | 0.00 | 0.38 | 0.38 | 88 | 997.0 |
| 20260903035541 | 56 | 211 | 0.0 | 2.6 | 0.00 | 0.38 | 0.38 | 88 | 996.9 |
| 20260903035049 | 56 | 190 | 0.0 | 2.6 | 0.00 | 0.38 | 0.38 | 88 | 996.9 |
| 20260903034502 | 56 | 190 | 0.0 | 1.7 | 0.00 | 0.38 | 0.38 | 88 | 996.6 |
| 20260903034007 | 56 | 190 | 0.0 | 1.7 | 0.00 | 0.38 | 0.38 | 88 | 996.6 |
| 20260903033523 | 56 | 190 | 0.0 | 0.0 | 0.00 | 0.38 | 0.38 | 88 | 996.5 |
| 20260903033053 | 57 | 189 | 0.0 | 0.0 | 0.00 | 0.38 | 0.38 | 87 | 996.4 |
| 20260903032504 | 57 | 189 | 0.0 | 1.7 | 0.00 | 0.38 | 0.38 | 88 | 996.3 |
| 20260903032013 | 57 | 189 | 0.0 | 2.6 | 0.00 | 0.38 | 0.38 | 87 | 996.3 |
| 20260903031549 | 57 | 189 | 0.0 | 5.2 | 0.00 | 0.38 | 0.38 | 87 | 996.2 |
| 20260903031055 | 57 | 183 | 0.0 | 5.2 | 0.00 | 0.38 | 0.38 | 87 | 996.2 |
| 20260903030603 | 57 | 205 | 0.0 | 2.6 | 0.00 | 0.38 | 0.38 | 87 | 996.1 |
| 20260903030046 | 57 | 205 | 0.0 | 5.2 | 0.00 | 0.38 | 0.38 | 87 | 996.1 |
| 20260903025541 | 57 | 175 | 0.9 | 5.2 | 0.00 | 0.38 | 0.38 | 87 | 996.0 |
| 20260903025051 | 58 | 174 | 0.9 | 4.3 | 0.00 | 0.38 | 0.38 | 87 | 996.0 |
| 20260903024529 | 58 | 162 | 0.0 | 2.6 | 0.00 | 0.38 | 0.38 | 87 | 995.9 |
| 20260903024036 | 58 | 172 | 0.0 | 5.2 | 0.00 | 0.38 | 0.38 | 87 | 995.7 |
| 20260903023541 | 58 | 172 | 1.7 | 5.2 | 0.00 | 0.38 | 0.38 | 87 | 995.7 |
| 20260903023008 | 58 | 202 | 0.0 | 2.6 | 0.00 | 0.38 | 0.38 | 86 | 995.8 |
| 20260903022524 | 58 | 202 | 0.9 | 3.5 | 0.00 | 0.38 | 0.38 | 87 | 995.7 |
| 20260903022035 | 59 | 200 | 0.9 | 3.5 | 0.00 | 0.38 | 0.38 | 87 | 995.6 |
| 20260903021502 | 59 | 150 | 0.0 | 1.7 | 0.00 | 0.38 | 0.38 | 87 | 995.5 |
| 20260903021007 | 59 | 150 | 0.0 | 6.1 | 0.00 | 0.38 | 0.38 | 87 | 995.6 |
| 20260903020515 | 59 | 150 | 0.0 | 6.1 | 0.00 | 0.38 | 0.38 | 87 | 995.6 |
| 20260903020051 | 59 | 162 | 0.9 | 6.1 | 0.00 | 0.38 | 0.38 | 86 | 995.6 |
| 20260903015557 | 59 | 170 | 0.9 | 5.2 | 0.00 | 0.38 | 0.38 | 87 | 995.5 |
| 20260903015001 | 59 | 202 | 0.0 | 1.7 | 0.00 | 0.38 | 0.38 | 87 | 995.4 |
| 20260903014545 | 60 | 196 | 0.0 | 1.7 | 0.00 | 0.38 | 0.38 | 87 | 995.4 |
| 20260903014043 | 60 | 196 | 0.0 | 1.7 | 0.00 | 0.38 | 0.38 | 87 | 995.3 |
| 20260903013551 | 60 | 196 | 0.0 | 0.9 | 0.00 | 0.38 | 0.38 | 87 | 995.4 |
| 20260903013028 | 60 | 196 | 0.0 | 2.6 | 0.00 | 0.38 | 0.38 | 86 | 995.3 |
| 20260903012531 | 60 | 196 | 0.0 | 3.5 | 0.00 | 0.38 | 0.38 | 86 | 995.3 |
| 20260903012040 | 60 | 215 | 0.0 | 2.6 | 0.00 | 0.38 | 0.38 | 87 | 995.2 |
| 20260903011518 | 60 | 228 | 0.0 | 2.6 | 0.00 | 0.38 | 0.38 | 87 | 995.2 |
| 20260903011024 | 60 | 228 | 0.0 | 3.5 | 0.00 | 0.38 | 0.38 | 87 | 995.2 |
| 20260903010530 | 60 | 227 | 0.9 | 3.5 | 0.00 | 0.38 | 0.38 | 87 | 995.2 |
| 20260903010046 | 60 | 160 | 0.9 | 4.3 | 0.00 | 0.38 | 0.38 | 87 | 995.1 |
| 20260903005553 | 60 | 189 | 0.0 | 7.0 | 0.00 | 0.38 | 0.38 | 87 | 995.2 |
| 20260903005103 | 60 | 178 | 1.7 | 7.0 | 0.00 | 0.38 | 0.38 | 87 | 995.2 |
| 20260903004538 | 60 | 182 | 0.9 | 4.3 | 0.00 | 0.38 | 0.38 | 87 | 995.1 |
| 20260903004041 | 60 | 180 | 0.9 | 6.1 | 0.00 | 0.38 | 0.38 | 87 | 995.1 |
| 20260903003551 | 60 | 166 | 0.0 | 6.1 | 0.00 | 0.38 | 0.38 | 87 | 995.0 |